Time,TemperatureF,DewpointF,PressureIn,WindDirection,WindDirectionDegrees,WindSpeedMPH,WindSpeedGustMPH,Humidity,HourlyPrecipIn,Conditions,Clouds,dailyrainin,SoftwareType,DateUTC
2013-02-26 00:01:00,75.0,72.0,29.87,SSE,159,0.0,4.0,91,0.00,,,0.00,,2013-02-26 05:01:00,
2013-02-26 00:12:00,76.0,73.0,29.88,South,174,0.0,5.0,91,0.00,,,0.00,,2013-02-26 05:12:00,
2013-02-26 00:22:00,76.0,73.0,29.88,South,174,0.0,5.0,91,0.00,,,0.00,,2013-02-26 05:22:00,
2013-02-26 00:32:00,76.0,73.0,29.88,SSW,209,1.0,3.0,91,0.00,,,0.00,,2013-02-26 05:32:00,
2013-02-26 00:43:00,76.0,73.0,29.88,SSW,209,1.0,3.0,91,0.00,,,0.00,,2013-02-26 05:43:00,
2013-02-26 00:52:00,76.0,73.0,29.87,SSW,194,1.0,3.0,90,0.00,,,0.00,,2013-02-26 05:52:00,
2013-02-26 01:02:00,76.0,73.0,29.87,East,82,0.0,4.0,90,0.00,,,0.00,,2013-02-26 06:02:00,
2013-02-26 01:11:00,76.0,73.0,29.87,East,82,0.0,4.0,90,0.00,,,0.00,,2013-02-26 06:11:00,
2013-02-26 01:21:00,76.0,73.0,29.87,SSE,158,1.0,10.0,89,0.00,,,0.00,,2013-02-26 06:21:00,
2013-02-26 01:32:00,76.0,72.0,29.86,SE,124,1.0,6.0,87,0.00,,,0.00,,2013-02-26 06:32:00,
2013-02-26 01:42:00,76.0,72.0,29.86,SE,124,1.0,6.0,87,0.00,,,0.00,,2013-02-26 06:42:00,
2013-02-26 01:52:00,76.0,72.0,29.85,SE,146,2.0,7.0,86,0.00,,,0.00,,2013-02-26 06:52:00,
2013-02-26 02:01:00,76.0,72.0,29.84,East,89,1.0,4.0,86,0.00,,,0.00,,2013-02-26 07:01:00,
2013-02-26 02:11:00,76.0,72.0,29.84,East,89,1.0,4.0,86,0.00,,,0.00,,2013-02-26 07:11:00,
2013-02-26 02:22:00,76.0,71.0,29.84,West,274,2.0,10.0,85,0.00,,,0.00,,2013-02-26 07:22:00,
2013-02-26 02:32:00,76.0,71.0,29.84,SW,225,2.0,9.0,85,0.00,,,0.00,,2013-02-26 07:32:00,
2013-02-26 02:42:00,76.0,71.0,29.84,SW,225,2.0,9.0,85,0.00,,,0.00,,2013-02-26 07:42:00,
2013-02-26 02:52:00,76.0,71.0,29.83,SSW,208,2.0,9.0,85,0.00,,,0.00,,2013-02-26 07:52:00,
2013-02-26 03:02:00,76.0,72.0,29.83,SSE,153,2.0,10.0,86,0.00,,,0.00,,2013-02-26 08:02:00,
2013-02-26 03:11:00,76.0,72.0,29.83,ESE,113,2.0,8.0,87,0.00,,,0.00,,2013-02-26 08:11:00,
2013-02-26 03:21:00,76.0,72.0,29.83,ESE,113,2.0,8.0,87,0.00,,,0.00,,2013-02-26 08:21:00,
2013-02-26 03:32:00,76.0,72.0,29.83,SSE,163,2.0,8.0,87,0.00,,,0.00,,2013-02-26 08:32:00,
2013-02-26 03:42:00,76.0,72.0,29.83,SSE,163,2.0,8.0,87,0.00,,,0.00,,2013-02-26 08:42:00,
2013-02-26 03:52:00,76.0,72.0,29.82,WSW,249,3.0,11.0,88,0.00,,,0.00,,2013-02-26 08:52:00,
2013-02-26 04:02:00,76.0,73.0,29.82,SW,217,2.0,8.0,89,0.00,,,0.00,,2013-02-26 09:02:00,
2013-02-26 04:11:00,76.0,73.0,29.82,SW,217,2.0,8.0,89,0.00,,,0.00,,2013-02-26 09:11:00,
2013-02-26 04:21:00,76.0,73.0,29.83,SW,233,3.0,9.0,89,0.00,,,0.00,,2013-02-26 09:21:00,
2013-02-26 04:32:00,76.0,73.0,29.83,SSE,153,3.0,7.0,89,0.00,,,0.00,,2013-02-26 09:32:00,
2013-02-26 04:43:00,76.0,73.0,29.83,SSE,153,3.0,7.0,89,0.00,,,0.00,,2013-02-26 09:43:00,
2013-02-26 04:52:00,76.0,72.0,29.83,West,262,3.0,11.0,88,0.00,,,0.00,,2013-02-26 09:52:00,
2013-02-26 05:01:00,76.0,72.0,29.83,SW,214,1.0,8.0,88,0.00,,,0.00,,2013-02-26 10:01:00,
2013-02-26 05:11:00,76.0,72.0,29.83,SW,214,1.0,8.0,88,0.00,,,0.00,,2013-02-26 10:11:00,
2013-02-26 05:21:00,76.0,72.0,29.84,WSW,248,2.0,5.0,88,0.00,,,0.00,,2013-02-26 10:21:00,
2013-02-26 05:31:00,76.0,73.0,29.84,SW,216,1.0,5.0,89,0.00,,,0.00,,2013-02-26 10:31:00,
2013-02-26 05:42:00,76.0,73.0,29.84,SW,216,1.0,5.0,89,0.00,,,0.00,,2013-02-26 10:42:00,
2013-02-26 05:52:00,76.0,72.0,29.84,East,101,1.0,6.0,88,0.00,,,0.00,,2013-02-26 10:52:00,
2013-02-26 06:01:00,76.0,72.0,29.84,SSW,205,2.0,5.0,87,0.00,,,0.00,,2013-02-26 11:01:00,
2013-02-26 06:12:00,76.0,72.0,29.84,SSW,205,2.0,5.0,87,0.00,,,0.00,,2013-02-26 11:12:00,
2013-02-26 06:22:00,76.0,72.0,29.84,South,186,2.0,8.0,87,0.00,,,0.00,,2013-02-26 11:22:00,
2013-02-26 06:32:00,76.0,72.0,29.84,SE,136,1.0,4.0,88,0.00,,,0.00,,2013-02-26 11:32:00,
2013-02-26 06:42:00,76.0,72.0,29.84,SE,136,1.0,4.0,88,0.00,,,0.00,,2013-02-26 11:42:00,
2013-02-26 06:53:00,76.0,73.0,29.84,SW,228,0.0,5.0,90,0.10,,,0.10,,2013-02-26 11:53:00,
2013-02-26 07:02:00,75.0,73.0,29.85,SW,214,1.0,3.0,92,0.10,,,0.10,,2013-02-26 12:02:00,
2013-02-26 07:11:00,75.0,73.0,29.85,SW,214,1.0,3.0,92,0.10,,,0.10,,2013-02-26 12:11:00,
2013-02-26 07:22:00,75.0,73.0,29.86,SW,214,1.0,4.0,93,0.10,,,0.10,,2013-02-26 12:22:00,
2013-02-26 07:32:00,76.0,74.0,29.86,SSW,205,4.0,9.0,92,0.10,,,0.10,,2013-02-26 12:32:00,
2013-02-26 07:42:00,76.0,74.0,29.86,SSW,205,4.0,9.0,92,0.10,,,0.10,,2013-02-26 12:42:00,
2013-02-26 07:53:00,76.0,73.0,29.87,SSW,203,4.0,9.0,91,0.00,,,0.10,,2013-02-26 12:53:00,
2013-02-26 08:02:00,77.0,73.0,29.88,SW,222,4.0,8.0,88,0.00,,,0.10,,2013-02-26 13:02:00,
2013-02-26 08:11:00,77.0,73.0,29.88,SW,222,4.0,8.0,88,0.00,,,0.10,,2013-02-26 13:11:00,
2013-02-26 08:22:00,78.0,74.0,29.88,SW,222,2.0,7.0,87,0.00,,,0.10,,2013-02-26 13:22:00,
2013-02-26 08:32:00,78.0,73.0,29.88,SSW,212,2.0,8.0,86,0.00,,,0.10,,2013-02-26 13:32:00,
2013-02-26 08:42:00,78.0,73.0,29.88,SSW,212,2.0,8.0,86,0.00,,,0.10,,2013-02-26 13:42:00,
2013-02-26 08:52:00,79.0,73.0,29.88,WSW,249,3.0,13.0,83,0.00,,,0.10,,2013-02-26 13:52:00,
2013-02-26 09:01:00,79.0,72.0,29.89,SSW,205,3.0,11.0,80,0.00,,,0.10,,2013-02-26 14:01:00,
2013-02-26 09:11:00,79.0,72.0,29.89,SSW,205,3.0,11.0,80,0.00,,,0.10,,2013-02-26 14:11:00,
2013-02-26 09:21:00,80.0,72.0,29.89,SW,214,4.0,9.0,78,0.00,,,0.10,,2013-02-26 14:21:00,
2013-02-26 09:32:00,81.0,72.0,29.89,SE,127,4.0,10.0,75,0.00,,,0.10,,2013-02-26 14:32:00,
2013-02-26 09:42:00,81.0,72.0,29.89,SE,127,4.0,10.0,75,0.00,,,0.10,,2013-02-26 14:42:00,
2013-02-26 09:52:00,81.0,71.0,29.90,SW,228,7.0,14.0,72,0.00,,,0.10,,2013-02-26 14:52:00,
2013-02-26 10:02:00,82.0,72.0,29.90,South,169,4.0,15.0,72,0.00,,,0.10,,2013-02-26 15:02:00,
2013-02-26 10:11:00,82.0,72.0,29.90,South,169,4.0,15.0,72,0.00,,,0.10,,2013-02-26 15:11:00,
2013-02-26 10:22:00,82.0,72.0,29.91,SW,236,5.0,13.0,71,0.00,,,0.10,,2013-02-26 15:22:00,
2013-02-26 10:32:00,82.0,71.0,29.91,WSW,251,7.0,11.0,70,0.00,,,0.10,,2013-02-26 15:32:00,
2013-02-26 10:42:00,82.0,71.0,29.91,WSW,251,7.0,11.0,70,0.00,,,0.10,,2013-02-26 15:42:00,
2013-02-26 10:52:00,83.0,72.0,29.91,West,259,3.0,10.0,70,0.00,,,0.10,,2013-02-26 15:52:00,
2013-02-26 11:01:00,83.0,72.0,29.90,WSW,253,4.0,9.0,70,0.00,,,0.10,,2013-02-26 16:01:00,
2013-02-26 11:11:00,83.0,72.0,29.90,WSW,253,4.0,9.0,70,0.00,,,0.10,,2013-02-26 16:11:00,
2013-02-26 11:22:00,82.0,73.0,29.90,WSW,253,2.0,9.0,74,0.00,,,0.10,,2013-02-26 16:22:00,
2013-02-26 11:32:00,81.0,73.0,29.91,SW,219,3.0,11.0,76,0.00,,,0.10,,2013-02-26 16:32:00,
2013-02-26 11:42:00,81.0,73.0,29.91,SW,219,3.0,11.0,76,0.00,,,0.10,,2013-02-26 16:42:00,
2013-02-26 11:52:00,81.0,73.0,29.91,West,267,4.0,15.0,78,0.00,,,0.10,,2013-02-26 16:52:00,
2013-02-26 12:01:00,81.0,73.0,29.91,SW,214,4.0,11.0,76,0.00,,,0.10,,2013-02-26 17:01:00,
2013-02-26 12:11:00,82.0,72.0,29.91,SW,236,9.0,12.0,71,0.00,,,0.10,,2013-02-26 17:11:00,
2013-02-26 12:22:00,82.0,72.0,29.91,SW,236,9.0,12.0,71,0.00,,,0.10,,2013-02-26 17:22:00,
2013-02-26 12:32:00,82.0,72.0,29.92,SSW,198,3.0,10.0,73,0.00,,,0.10,,2013-02-26 17:32:00,
2013-02-26 12:42:00,82.0,72.0,29.92,SSW,198,3.0,10.0,73,0.00,,,0.10,,2013-02-26 17:42:00,
2013-02-26 12:52:00,83.0,73.0,29.91,SW,225,4.0,9.0,73,0.00,,,0.10,,2013-02-26 17:52:00,
2013-02-26 13:02:00,82.0,73.0,29.91,South,174,4.0,10.0,75,0.00,,,0.10,,2013-02-26 18:02:00,
2013-02-26 13:12:00,82.0,73.0,29.91,South,174,4.0,10.0,75,0.00,,,0.10,,2013-02-26 18:12:00,
2013-02-26 13:21:00,83.0,73.0,29.90,SE,143,4.0,8.0,72,0.00,,,0.10,,2013-02-26 18:21:00,
2013-02-26 13:32:00,83.0,71.0,29.89,WSW,242,10.0,13.0,68,0.00,,,0.10,,2013-02-26 18:32:00,
2013-02-26 13:42:00,83.0,71.0,29.89,WSW,242,10.0,13.0,68,0.00,,,0.10,,2013-02-26 18:42:00,
2013-02-26 13:52:00,83.0,71.0,29.88,SW,234,10.0,14.0,67,0.00,,,0.10,,2013-02-26 18:52:00,
2013-02-26 14:01:00,83.0,71.0,29.87,South,176,7.0,15.0,68,0.00,,,0.10,,2013-02-26 19:01:00,
2013-02-26 14:11:00,83.0,71.0,29.87,South,176,7.0,15.0,68,0.00,,,0.10,,2013-02-26 19:11:00,
2013-02-26 14:22:00,84.0,72.0,29.86,WSW,238,8.0,17.0,67,0.00,,,0.10,,2013-02-26 19:22:00,
2013-02-26 14:32:00,84.0,71.0,29.85,WSW,238,8.0,16.0,66,0.00,,,0.10,,2013-02-26 19:32:00,
2013-02-26 14:42:00,84.0,71.0,29.85,WSW,238,8.0,16.0,66,0.00,,,0.10,,2013-02-26 19:42:00,
2013-02-26 14:52:00,84.0,71.0,29.85,SSW,198,8.0,14.0,65,0.00,,,0.10,,2013-02-26 19:52:00,
2013-02-26 15:01:00,84.0,70.0,29.85,WNW,283,7.0,17.0,64,0.00,,,0.10,,2013-02-26 20:01:00,
2013-02-26 15:11:00,84.0,70.0,29.85,WNW,283,7.0,17.0,64,0.00,,,0.10,,2013-02-26 20:11:00,
2013-02-26 15:21:00,85.0,72.0,29.85,West,280,8.0,16.0,65,0.00,,,0.10,,2013-02-26 20:21:00,
2013-02-26 15:32:00,84.0,71.0,29.84,WSW,242,6.0,16.0,65,0.00,,,0.10,,2013-02-26 20:32:00,
2013-02-26 15:41:00,84.0,71.0,29.84,WSW,242,6.0,16.0,65,0.00,,,0.10,,2013-02-26 20:41:00,
2013-02-26 15:52:00,84.0,71.0,29.84,SSW,193,9.0,16.0,65,0.00,,,0.10,,2013-02-26 20:52:00,
2013-02-26 16:01:00,84.0,71.0,29.85,West,267,10.0,21.0,65,0.00,,,0.10,,2013-02-26 21:01:00,
2013-02-26 16:11:00,84.0,71.0,29.85,West,267,10.0,21.0,65,0.00,,,0.10,,2013-02-26 21:11:00,
2013-02-26 16:21:00,84.0,72.0,29.85,WSW,245,7.0,14.0,67,0.00,,,0.10,,2013-02-26 21:21:00,
2013-02-26 16:31:00,83.0,72.0,29.85,SW,236,7.0,13.0,69,0.00,,,0.10,,2013-02-26 21:31:00,
2013-02-26 16:41:00,83.0,72.0,29.85,SW,236,7.0,13.0,69,0.00,,,0.10,,2013-02-26 21:41:00,
2013-02-26 16:51:00,83.0,72.0,29.86,South,171,9.0,16.0,69,0.00,,,0.10,,2013-02-26 21:51:00,
2013-02-26 17:01:00,82.0,72.0,29.85,West,271,10.0,16.0,71,0.00,,,0.10,,2013-02-26 22:01:00,
2013-02-26 17:11:00,82.0,72.0,29.85,West,262,10.0,17.0,73,0.00,,,0.10,,2013-02-26 22:11:00,
2013-02-26 17:21:00,82.0,72.0,29.85,West,262,10.0,17.0,73,0.00,,,0.10,,2013-02-26 22:21:00,
2013-02-26 17:32:00,82.0,72.0,29.85,SSW,211,7.0,12.0,73,0.00,,,0.10,,2013-02-26 22:32:00,
2013-02-26 17:41:00,82.0,72.0,29.85,SSW,211,7.0,12.0,73,0.00,,,0.10,,2013-02-26 22:41:00,
2013-02-26 17:52:00,82.0,73.0,29.86,West,267,5.0,9.0,74,0.00,,,0.10,,2013-02-26 22:52:00,
2013-02-26 18:01:00,81.0,72.0,29.87,West,277,5.0,11.0,75,0.00,,,0.10,,2013-02-26 23:01:00,
2013-02-26 18:11:00,81.0,72.0,29.87,West,277,5.0,11.0,75,0.00,,,0.10,,2013-02-26 23:11:00,
2013-02-26 18:21:00,81.0,72.0,29.87,WSW,255,7.0,13.0,75,0.00,,,0.10,,2013-02-26 23:21:00,
2013-02-26 18:32:00,81.0,72.0,29.88,SW,235,6.0,11.0,75,0.00,,,0.10,,2013-02-26 23:32:00,
2013-02-26 18:42:00,81.0,72.0,29.88,SW,235,6.0,11.0,75,0.00,,,0.10,,2013-02-26 23:42:00,
2013-02-26 18:52:00,81.0,73.0,29.88,WNW,290,5.0,11.0,76,0.00,,,0.10,,2013-02-26 23:52:00,
2013-02-26 19:01:00,81.0,73.0,29.88,WSW,252,4.0,12.0,76,0.00,,,0.10,,2013-02-27 00:01:00,
2013-02-26 19:11:00,81.0,73.0,29.88,WSW,252,4.0,12.0,76,0.00,,,0.10,,2013-02-27 00:11:00,
2013-02-26 19:22:00,80.0,72.0,29.88,WSW,253,5.0,8.0,77,0.00,,,0.10,,2013-02-27 00:22:00,
2013-02-26 19:32:00,80.0,72.0,29.88,SW,214,4.0,8.0,78,0.00,,,0.10,,2013-02-27 00:32:00,
2013-02-26 19:42:00,80.0,72.0,29.88,SW,214,4.0,8.0,78,0.00,,,0.10,,2013-02-27 00:42:00,
2013-02-26 19:52:00,80.0,73.0,29.89,WSW,246,3.0,6.0,79,0.00,,,0.10,,2013-02-27 00:52:00,
2013-02-26 20:01:00,79.0,72.0,29.90,WSW,246,3.0,7.0,80,0.00,,,0.10,,2013-02-27 01:01:00,
2013-02-26 20:11:00,79.0,72.0,29.90,WSW,246,3.0,7.0,80,0.00,,,0.10,,2013-02-27 01:11:00,
2013-02-26 20:22:00,79.0,72.0,29.90,SW,223,3.0,6.0,80,0.00,,,0.10,,2013-02-27 01:22:00,
2013-02-26 20:32:00,79.0,73.0,29.91,SW,224,2.0,6.0,81,0.00,,,0.10,,2013-02-27 01:32:00,
2013-02-26 20:42:00,79.0,73.0,29.91,SW,224,2.0,6.0,81,0.00,,,0.10,,2013-02-27 01:42:00,
2013-02-26 20:52:00,79.0,73.0,29.91,SW,235,2.0,4.0,81,0.00,,,0.10,,2013-02-27 01:52:00,
2013-02-26 21:01:00,78.0,72.0,29.91,SW,232,1.0,5.0,83,0.00,,,0.10,,2013-02-27 02:01:00,
2013-02-26 21:15:00,78.0,72.0,29.91,SW,232,1.0,5.0,83,0.00,,,0.10,,2013-02-27 02:15:00,
2013-02-26 21:24:00,78.0,73.0,29.92,SW,235,1.0,4.0,85,0.00,,,0.10,,2013-02-27 02:24:00,
2013-02-26 21:32:00,78.0,74.0,29.92,SSW,208,1.0,4.0,87,0.00,,,0.10,,2013-02-27 02:32:00,
2013-02-26 21:42:00,78.0,74.0,29.92,SSW,208,1.0,4.0,87,0.00,,,0.10,,2013-02-27 02:42:00,
2013-02-26 21:52:00,77.0,73.0,29.91,WSW,239,1.0,5.0,88,0.00,,,0.10,,2013-02-27 02:52:00,
2013-02-26 22:02:00,77.0,74.0,29.92,SW,222,3.0,4.0,89,0.00,,,0.10,,2013-02-27 03:02:00,
2013-02-26 22:11:00,77.0,74.0,29.92,SW,224,2.0,4.0,90,0.00,,,0.10,,2013-02-27 03:11:00,
2013-02-26 22:22:00,77.0,74.0,29.92,SW,224,2.0,4.0,90,0.00,,,0.10,,2013-02-27 03:22:00,
2013-02-26 22:32:00,77.0,74.0,29.92,SW,217,1.0,5.0,90,0.00,,,0.10,,2013-02-27 03:32:00,
2013-02-26 22:42:00,77.0,74.0,29.92,SW,217,1.0,5.0,90,0.00,,,0.10,,2013-02-27 03:42:00,
2013-02-26 22:52:00,77.0,74.0,29.93,WSW,238,2.0,4.0,90,0.00,,,0.10,,2013-02-27 03:52:00,
2013-02-26 23:01:00,77.0,74.0,29.92,SW,218,3.0,5.0,90,0.00,,,0.10,,2013-02-27 04:01:00,
2013-02-26 23:11:00,77.0,74.0,29.92,SW,218,3.0,5.0,90,0.00,,,0.10,,2013-02-27 04:11:00,
2013-02-26 23:22:00,77.0,74.0,29.92,West,260,2.0,6.0,90,0.00,,,0.10,,2013-02-27 04:22:00,
2013-02-26 23:32:00,78.0,74.0,29.92,South,169,2.0,6.0,89,0.00,,,0.10,,2013-02-27 04:32:00,
2013-02-26 23:42:00,78.0,74.0,29.92,South,169,2.0,6.0,89,0.00,,,0.10,,2013-02-27 04:42:00,
2013-02-26 23:52:00,78.0,74.0,29.91,SSW,195,2.0,7.0,89,0.00,,,0.10,,2013-02-27 04:52:00,